STARLINK-35009

Last updated on Thu Oct 02 2025 00:02:05 GMT+0000 (Coordinated Universal Time)

1 65449U 25194R 25274.25003472 -.01872514 00000+0 -50992-1 0 9997 2 65449 97.6032 126.6154 0002038 99.5214 20.6294 15.40769401 4896

Satellite not in orbit

STARLINK-35009